TimeEDT,TemperatureF,Dew PointF,Humidity,Sea Level PressureIn,VisibilityMPH,Wind Direction,Wind SpeedMPH,Gust SpeedMPH,PrecipitationIn,Events,Conditions,WindDirDegrees,DateUTC
12:15 AM,71.6,71.6,100,30.24,1.8,Calm,Calm,-,N/A,Rain,Light Rain,0,2013-07-06 04:15:00
12:35 AM,71.6,71.6,100,30.24,1.5,Calm,Calm,-,N/A,Rain,Light Rain,0,2013-07-06 04:35:00
12:55 AM,71.6,71.6,100,30.24,10.0,Calm,Calm,-,N/A,Rain,Light Rain,0,2013-07-06 04:55:00
1:15 AM,71.6,71.6,100,30.23,4.0,Calm,Calm,-,N/A,Rain,Light Rain,0,2013-07-06 05:15:00
1:35 AM,69.8,69.8,100,30.23,4.0,Calm,Calm,-,N/A,Rain,Light Rain,0,2013-07-06 05:35:00
1:55 AM,69.8,69.8,100,30.23,4.0,Calm,Calm,-,N/A,Rain,Light Rain,0,2013-07-06 05:55:00
2:15 AM,69.8,69.8,100,30.22,4.0,Calm,Calm,-,N/A,Rain,Light Rain,0,2013-07-06 06:15:00
2:35 AM,68.0,68.0,100,30.22,3.0,Calm,Calm,-,N/A,Rain,Light Rain,0,2013-07-06 06:35:00
2:55 AM,68.0,68.0,100,30.21,3.0,Calm,Calm,-,N/A,Rain,Light Rain,0,2013-07-06 06:55:00
3:15 AM,69.8,69.8,100,30.22,5.0,Calm,Calm,-,N/A,Rain,Light Rain,0,2013-07-06 07:15:00
3:35 AM,69.8,69.8,100,30.22,6.0,Calm,Calm,-,N/A,Rain,Light Rain,0,2013-07-06 07:35:00
3:55 AM,69.8,69.8,100,30.21,4.0,Calm,Calm,-,N/A,Rain,Light Rain,0,2013-07-06 07:55:00
4:15 AM,71.6,71.6,100,30.21,3.0,Calm,Calm,-,N/A,Rain,Light Rain,0,2013-07-06 08:15:00
4:35 AM,71.6,71.6,100,30.21,2.5,Calm,Calm,-,N/A,Rain,Light Rain,0,2013-07-06 08:35:00
4:55 AM,71.6,71.6,100,30.22,1.0,Calm,Calm,-,N/A,Rain,Light Rain,0,2013-07-06 08:55:00
5:15 AM,71.6,71.6,100,30.22,0.5,Calm,Calm,-,N/A,Rain,Light Rain,0,2013-07-06 09:15:00
5:35 AM,71.6,71.6,100,30.22,0.5,Calm,Calm,-,N/A,Rain,Light Rain,0,2013-07-06 09:35:00
5:55 AM,71.6,71.6,100,30.22,0.8,Calm,Calm,-,N/A,Rain,Light Rain,0,2013-07-06 09:55:00
6:15 AM,71.6,71.6,100,30.23,1.0,Calm,Calm,-,N/A,Rain,Light Rain,0,2013-07-06 10:15:00
6:35 AM,71.6,71.6,100,30.23,0.8,Calm,Calm,-,N/A,Rain,Light Rain,0,2013-07-06 10:35:00
6:55 AM,71.6,71.6,100,30.24,0.8,Calm,Calm,-,N/A,Rain,Light Rain,0,2013-07-06 10:55:00
7:15 AM,73.4,73.4,100,30.24,1.0,Calm,Calm,-,N/A,Rain,Light Rain,0,2013-07-06 11:15:00
7:35 AM,73.4,73.4,100,30.24,1.2,Calm,Calm,-,N/A,Rain,Light Rain,0,2013-07-06 11:35:00
7:55 AM,73.4,73.4,100,30.24,1.5,SE,3.5,-,N/A,Rain,Light Rain,140,2013-07-06 11:55:00
8:15 AM,73.4,73.4,100,30.25,3.0,Calm,Calm,-,N/A,Rain,Light Rain,0,2013-07-06 12:15:00
8:35 AM,73.4,73.4,100,30.26,2.5,Calm,Calm,-,N/A,Rain,Light Rain,0,2013-07-06 12:35:00
8:55 AM,73.4,73.4,100,30.26,3.0,South,3.5,-,N/A,Rain,Light Rain,180,2013-07-06 12:55:00
9:15 AM,73.4,73.4,100,30.26,4.0,Calm,Calm,-,N/A,Rain,Light Rain,0,2013-07-06 13:15:00
9:35 AM,75.2,75.2,100,30.26,10.0,South,3.5,-,N/A,,Overcast,170,2013-07-06 13:35:00
9:55 AM,75.2,75.2,100,30.25,10.0,South,3.5,-,N/A,,Mostly Cloudy,170,2013-07-06 13:55:00
10:15 AM,77.0,77.0,100,30.25,7.0,SSW,3.5,-,N/A,,Mostly Cloudy,210,2013-07-06 14:15:00
10:35 AM,78.8,77.0,94,30.25,7.0,Calm,Calm,-,N/A,,Scattered Clouds,0,2013-07-06 14:35:00
10:55 AM,78.8,77.0,94,30.25,7.0,Calm,Calm,-,N/A,,Mostly Cloudy,0,2013-07-06 14:55:00
11:15 AM,80.6,77.0,89,30.25,10.0,SW,3.5,-,N/A,,Mostly Cloudy,220,2013-07-06 15:15:00
11:35 AM,80.6,77.0,89,30.24,8.0,Calm,Calm,-,N/A,,Scattered Clouds,0,2013-07-06 15:35:00
11:55 AM,75.2,75.2,100,30.25,0.2,SSE,3.5,-,N/A,Rain,Heavy Rain,150,2013-07-06 15:55:00
12:15 PM,77.0,77.0,100,30.25,4.0,Calm,Calm,-,N/A,Rain,Light Rain,0,2013-07-06 16:15:00
12:35 PM,77.0,77.0,100,30.24,8.0,Calm,Calm,-,N/A,Rain,Light Rain,0,2013-07-06 16:35:00
12:55 PM,77.0,77.0,100,30.23,1.5,Calm,Calm,-,N/A,Rain,Light Rain,0,2013-07-06 16:55:00
1:15 PM,80.6,80.6,100,30.22,4.0,West,4.6,-,N/A,Rain,Light Rain,260,2013-07-06 17:15:00
1:35 PM,77.0,77.0,100,30.21,9.0,Calm,Calm,-,N/A,,Mostly Cloudy,0,2013-07-06 17:35:00
1:55 PM,82.4,75.2,79,30.20,8.0,Calm,Calm,-,N/A,,Scattered Clouds,0,2013-07-06 17:55:00
2:15 PM,80.6,80.6,100,30.20,5.0,South,3.5,-,N/A,Rain,Light Rain,170,2013-07-06 18:15:00
2:35 PM,82.4,78.8,89,30.20,10.0,Calm,Calm,-,N/A,,Partly Cloudy,0,2013-07-06 18:35:00
2:55 PM,82.4,77.0,84,30.19,9.0,SSE,4.6,-,N/A,,Partly Cloudy,160,2013-07-06 18:55:00
3:15 PM,80.6,80.6,100,30.18,8.0,Calm,Calm,-,N/A,,Scattered Clouds,0,2013-07-06 19:15:00
3:35 PM,84.2,77.0,79,30.17,8.0,Calm,Calm,-,N/A,,Clear,0,2013-07-06 19:35:00
3:55 PM,84.2,77.0,79,30.16,8.0,ESE,3.5,-,N/A,,Partly Cloudy,120,2013-07-06 19:55:00
4:15 PM,84.2,77.0,79,30.16,9.0,SE,6.9,-,N/A,,Partly Cloudy,140,2013-07-06 20:15:00
4:35 PM,77.0,77.0,100,30.17,2.0,SE,4.6,-,N/A,Rain,Light Rain,140,2013-07-06 20:35:00
4:55 PM,77.0,77.0,100,30.16,10.0,SSE,3.5,-,N/A,,Clear,150,2013-07-06 20:55:00
5:15 PM,82.4,77.0,84,30.15,8.0,SSE,4.6,-,N/A,,Clear,150,2013-07-06 21:15:00
5:35 PM,80.6,77.0,89,30.15,10.0,SSE,4.6,-,N/A,,Clear,160,2013-07-06 21:35:00
5:55 PM,80.6,77.0,89,30.14,8.0,SSE,3.5,-,N/A,Thunderstorm,Clear,150,2013-07-06 21:55:00
6:15 PM,80.6,77.0,89,30.14,10.0,South,4.6,-,N/A,,Partly Cloudy,170,2013-07-06 22:15:00
6:35 PM,82.4,77.0,84,30.14,8.0,SE,4.6,-,N/A,,Partly Cloudy,140,2013-07-06 22:35:00
6:55 PM,80.6,77.0,89,30.15,6.0,SSE,4.6,-,N/A,,Clear,150,2013-07-06 22:55:00
7:15 PM,80.6,77.0,89,30.16,8.0,SSE,4.6,-,N/A,,Clear,160,2013-07-06 23:15:00
7:35 PM,75.2,75.2,100,30.17,1.8,SSW,5.8,-,N/A,Rain,Light Rain,200,2013-07-06 23:35:00
7:55 PM,73.4,73.4,100,30.17,10.0,Calm,Calm,-,N/A,,Partly Cloudy,0,2013-07-06 23:55:00
8:15 PM,73.4,73.4,100,30.18,9.0,Calm,Calm,-,N/A,Rain,Light Rain,0,2013-07-07 00:15:00
8:35 PM,73.4,73.4,100,30.19,9.0,Calm,Calm,-,N/A,Rain,Light Rain,0,2013-07-07 00:35:00
8:55 PM,73.4,73.4,100,30.18,3.0,Calm,Calm,-,N/A,Rain,Light Rain,0,2013-07-07 00:55:00
9:15 PM,73.4,73.4,100,30.19,5.0,Calm,Calm,-,N/A,Rain,Light Rain,0,2013-07-07 01:15:00
9:35 PM,73.4,73.4,100,30.19,7.0,Calm,Calm,-,N/A,Rain,Light Rain,0,2013-07-07 01:35:00
9:55 PM,73.4,73.4,100,30.20,10.0,Calm,Calm,-,N/A,,Mostly Cloudy,0,2013-07-07 01:55:00
10:15 PM,73.4,73.4,100,30.20,6.0,Calm,Calm,-,N/A,Rain,Light Rain,0,2013-07-07 02:15:00
10:35 PM,73.4,73.4,100,30.21,10.0,SSE,3.5,-,N/A,Rain,Light Rain,160,2013-07-07 02:35:00
10:55 PM,73.4,73.4,100,30.20,10.0,Calm,Calm,-,N/A,Rain,Light Rain,0,2013-07-07 02:55:00
11:15 PM,73.4,73.4,100,30.21,10.0,Calm,Calm,-,N/A,Rain,Light Rain,0,2013-07-07 03:15:00
11:35 PM,73.4,73.4,100,30.20,5.0,Calm,Calm,-,N/A,Rain,Light Rain,0,2013-07-07 03:35:00
11:55 PM,73.4,73.4,100,30.20,4.0,Calm,Calm,-,N/A,Rain,Light Rain,0,2013-07-07 03:55:00